Location: Jastrz?bniki
(50.3667°N, 20.3833°E)
Time: 10:25:49
(UTC+00:00)

SL-16 R/B - Pass Details

Date: 05 August 2024
Orbit: 842 x 845 km, 71.0° (Epoch: 06 September)

Event Time Altitude Azimuth Distance (km) Brightness Sun altitude
Exits shadow 02:08:15 - 265° (W) 2,897 4.5 -9.3°
Reaches altitude 10° 02:09:44 10° 274° (W) 2,468 4.2 -9.1°
Maximum altitude 02:13:59 21° 323° (NW) 1,812 4.0 -8.6°
Drops below altitude 10° 02:18:14 10° 12° (NNE) 2,477 5.5 -8.1°
Sets 02:21:19 0° 28° (NNE) 3,416 6.8 -7.7°
